Showing default

GJZ 02, 62291

Orbit data source: Space-Track

GJZ 02, 62291 is a payload satellite owned by CASC (CN) in LEO that was launched on Thu, 12 Dec 2024 UTC via a CHANG ZHENG 2D/YZ-3 launch vehicle from the Jiuquan Satellite Launch Center, China (JSC). Payload-class satellites include a variety of spacecraft equipped with specific instruments for various scientific and technological missions. These include communications satellites like Starlink; space stations such as the ISS; scientific satellites like the Hubble; Earth observation satellites from companies like Planet Labs, Umbra, and HawkEye 360; GPS; miniature CubeSats for education and research; and military/defense satellites.

Loading next visibility...
Identifier
62291, 2024-238B
Orbit
LEO
Country
Flag of CNCN / PRC
Related business
Manufacturer
HITSAT
Mission
Operational Civil Communications
Bus & Motor
HARBFLAT, Unknown motor
Mass
~150 kg wet, ~150 kg dry
Launch date (UTC)
2024-12-12 (1 year ago)
Launch vehicle
CHANG ZHENG 2D/YZ-3
Launch site
Jiuquan Satellite Launch Center, China (JSC)
Object type
Payload
Rocket body
Debris
Shape & HBR
Box + 2 Pan, 1.5 m
Radar Cross Section
0.240 m², Large (>1 m²)

Expand to show TLE details & history
Last TLE update: 5 hours ago

TLE from 5 hours ago
0 GJZ 02
1 62291U 24238B   26036.31143309  .00000061  00000-0  18783-3 0  9997
2 62291  59.9179 289.8774 0008069  94.7658 265.4272 13.75180422 58148
Epoch: 2026-02-05T07:28Z
TLE epoch observation values (Epoch: 2026-02-05T07:28:27.818Z)
Latitude
0.00001°
Longitude
42.29602°
Altitude
982.995 km
Speed
7.361 km/s
True Right ascension
19h 19m 30s
True Declination
0° 00' 00"
Sunlit
Object was in daylight at epoch
Visualization orbit readout
Latitude
Unknown
Longitude
Unknown
Altitude
Unknown
Speed
Unknown
Apparent Right ascension
Unknown
Apparent Declination
Unknown
Sunlit
N/A
Visualization observer readout
Local Sidereal Time
14:57:00
Azimuth
Unknown
Elevation
Unknown
Doppler factor
Unknown
Orbital elements
Apogee altitude
986.236 km
Perigee altitude
974.361 km
Semi-major axis
7,358.436 km
Eccentricity
0.00081
Inclination
59.9179°
RAAN
289.8774°
Arg. of periapsis
94.7658°
True anomaly
265.33504°
Mean anomaly
265.4272°
Eccentric anomaly
265.38112°
Mean motion
3.43847 °/min
Orbital period
104.7 mins
BSTAR
0.00018783
Loading maneuver chart data...
Computing Atmospheric mass density...
Loading historical data...
Loading historical data...
Loading historical data...
Loading historical data...
Loading historical data...
Loading historical data...
Loading historical data...
Other satellites on launch #238 in the year 2024 (2024-12-12 UTC)

Documentation

Showing up to 5 results
|